White Plains, CT

8:26 AM EDT on October 17, 2017 (GMT -0400)
Westchester County

Weather History for KHPN - November, 2014

Change the Weather History Date:

Tuesday, November 18, 2014

  Actual Average Record
Temperature  
Mean Temperature 32 °F -  
Max Temperature 43 °F 48 °F 66 °F (1987)
Min Temperature 21 °F 34 °F 21 °F (2014)
Degree Days  
Heating Degree Days 33    
Moisture  
Dew Point 9 °F    
Average Humidity 44    
Maximum Humidity 68    
Minimum Humidity 29    
Precipitation  
Precipitation 0.01 in - - ()
Sea Level Pressure  
Sea Level Pressure 29.84 in    
Wind  
Wind Speed 14 mph (West)    
Max Wind Speed 25 mph    
Max Gust Speed 33 mph    
Visibility 10 miles    
Events      
Averages and records for this station are not official NWS values.
T = Trace of Precipitation, MM = Missing Value Source: NWS Daily Summary

Daily Weather History Graph

Daily Weather History Graph

Search for Another Location

Airport or City:

Trip Planner

Search our weather history database for the weather conditions in past years. The results will help you decide how hot, cold, wet, or windy it might be!

Date:

Astronomy

Nov. 18, 2014 Rise Set
Actual Time 6:46 AM EST 4:33 PM EST
Civil Twilight 6:16 AM EST 5:03 PM EST
Nautical Twilight 5:42 AM EST 5:36 PM EST
Astronomical Twilight 5:10 AM EST 6:09 PM EST
Moon 2:39 AM EST (11/18) 2:28 PM EST (11/18)
Length of Visible Light 10h 47m
Length of Day
9h 47m
Waning Crescent, 15% of the Moon is Illuminated
Nov 18
Waning Crescent
Nov 22
New
Nov 29
First Quarter
Dec 6
Full
Dec 14
Last Quarter

Hourly Weather History & Observations

Time (EST) Temp. Windchill Dew Point Humidity Pressure Visibility Wind Dir Wind Speed Gust Speed Precip Events Conditions
12:56 AM 43.0 °F 36.8 °F 33.1 °F 68% 29.58 in 10.0 mi WNW 11.5 mph - 0.01 in   Mostly Cloudy
1:56 AM 41.0 °F 35.8 °F 30.9 °F 67% 29.60 in 10.0 mi West 8.1 mph 19.6 mph N/A   Scattered Clouds
2:56 AM 37.9 °F 30.0 °F 26.1 °F 62% 29.62 in 10.0 mi West 12.7 mph 19.6 mph N/A   Scattered Clouds
3:56 AM 36.0 °F 27.1 °F 23.0 °F 59% 29.64 in 10.0 mi West 13.8 mph 21.9 mph N/A   Partly Cloudy
4:56 AM 34.0 °F 25.0 °F 19.0 °F 54% 29.67 in 10.0 mi West 12.7 mph 27.6 mph N/A   Clear
5:56 AM 32.0 °F 19.8 °F 17.1 °F 54% 29.70 in 10.0 mi WNW 20.7 mph 28.8 mph N/A   Clear
6:56 AM 28.4 °F 17.5 °F 15.8 °F 59% 29.73 in 10.0 mi West 13.8 mph 25.3 mph N/A   Clear
7:56 AM 27.0 °F 15.6 °F 10.9 °F 51% 29.79 in 10.0 mi West 13.8 mph 27.6 mph N/A   Clear
8:56 AM 27.0 °F 14.3 °F 8.1 °F 45% 29.81 in 10.0 mi WNW 17.3 mph 27.6 mph N/A   Clear
9:56 AM 28.0 °F 13.3 °F 5.0 °F 38% 29.83 in 10.0 mi West 25.3 mph 32.2 mph N/A   Clear
10:56 AM 28.9 °F 16.5 °F 3.9 °F 35% 29.83 in 10.0 mi West 18.4 mph 24.2 mph N/A   Clear
11:56 AM 30.0 °F 16.6 °F 1.9 °F 30% 29.83 in 10.0 mi West 23.0 mph 32.2 mph N/A   Partly Cloudy
12:56 PM 30.9 °F 21.2 °F 1.9 °F 29% 29.83 in 10.0 mi West 12.7 mph 25.3 mph N/A   Partly Cloudy
1:56 PM 30.9 °F 19.4 °F 3.0 °F 31% 29.84 in 10.0 mi West 17.3 mph 33.4 mph N/A   Partly Cloudy
2:56 PM 30.0 °F 17.9 °F 1.9 °F 30% 29.86 in 10.0 mi WNW 18.4 mph 27.6 mph N/A   Partly Cloudy
3:56 PM 28.0 °F 16.1 °F -0.0 °F 30% 29.89 in 10.0 mi West 16.1 mph 23.0 mph N/A   Partly Cloudy
4:56 PM 27.0 °F 15.6 °F -0.0 °F 31% 29.92 in 10.0 mi West 13.8 mph 25.3 mph N/A   Partly Cloudy
5:56 PM 26.1 °F 15.6 °F 1.0 °F 34% 29.95 in 10.0 mi WSW 11.5 mph 21.9 mph N/A   Clear
6:56 PM 25.0 °F 13.6 °F 1.9 °F 37% 29.98 in 10.0 mi West 12.7 mph 19.6 mph N/A   Clear
7:56 PM 24.1 °F 11.0 °F 1.0 °F 37% 30.02 in 10.0 mi West 16.1 mph 26.5 mph N/A   Clear
8:56 PM 23.0 °F 13.9 °F 1.9 °F 40% 30.04 in 10.0 mi West 8.1 mph 18.4 mph N/A   Clear
9:56 PM 23.0 °F 12.4 °F 1.9 °F 40% 30.06 in 10.0 mi West 10.4 mph 19.6 mph N/A   Clear
10:56 PM 21.9 °F 9.8 °F 1.9 °F 42% 30.08 in 10.0 mi West 12.7 mph 19.6 mph N/A   Clear
11:56 PM 21.9 °F 9.8 °F 1.9 °F 42% 30.09 in 10.0 mi West 12.7 mph 21.9 mph N/A   Clear